ORBCOMM FM01 [-] (23545 NORAD) Tracking and Keplerian Element Data

This shows tracking and keplerian element data for the satellite.

Feedback or suggestion? Click here.




ElementValue
Catalog23545
NameORBCOMM FM01 [-]
Epoch Orbit51462
Epoch Day238.63587118
Epoch Year2023
RAAN261.1445
Inclination69.9668
Eccentricity0.0007842
Argument of Perigee253.1461
Mean Anonmoly106.8827
Mean Motion14.76206062
Decay Rate3.252E-05
L11 23545U 95017A 23238.63587118 .00003252 00000+0 48005-3 0 9999
L22 23545 69.9668 261.1445 0007842 253.1461 106.8827 14.76206062514625



Live tracking and technical data element details for ORBCOMM FM01 [-] (NORAD 23545). ORBCOMM FM01 [-] can be tracked NOW for your location showing map with azimuth and elevation plus other details from your city location.







IsCatalogInMostPopularTable: catalog: 23545, numindb: 280
Update: records affected: 1



GetName: 23545 ORBCOMM FM01 [-]

Hit Count: updated at: Thu, 15 May 2025 20:11:28 GMT